| time (UTC) | temp F | wind direction | speed MPH | gust MPH | rain 1hr in | rain 24hr in | rain mn in | humidity % | barometer mb |
| 20260906032030 | 61 | 264 | 0.0 | 1.0 | 0.00 | 0.00 | 0.00 | 68 | 1021.1 |
| 20260906031537 | 61 | 264 | 0.0 | 1.0 | 0.00 | 0.00 | 0.00 | 68 | 1021.1 |
| 20260906031025 | 61 | 264 | 0.0 | 1.0 | 0.00 | 0.00 | 0.00 | 69 | 1021.1 |
| 20260906030521 | 61 | 264 | 0.0 | 1.0 | 0.00 | 0.00 | 0.00 | 69 | 1021.1 |
| 20260906030023 | 61 | 128 | 0.0 | 3.0 | 0.00 | 0.00 | 0.00 | 68 | 1021.1 |
| 20260906025513 | 61 | 75 | 1.0 | 3.0 | 0.00 | 0.00 | 0.00 | 68 | 1020.9 |
| 20260906025013 | 61 | 89 | 0.0 | 2.0 | 0.00 | 0.00 | 0.00 | 68 | 1020.9 |
| 20260906024513 | 61 | 115 | 0.0 | 1.0 | 0.00 | 0.00 | 0.00 | 68 | 1020.9 |
| 20260906024017 | 61 | 139 | 0.0 | 0.0 | 0.00 | 0.00 | 0.00 | 67 | 1020.8 |
| 20260906023513 | 61 | 139 | 0.0 | 0.0 | 0.00 | 0.00 | 0.00 | 68 | 1020.8 |
| 20260906023013 | 61 | 139 | 0.0 | 1.0 | 0.00 | 0.00 | 0.00 | 67 | 1020.7 |
| 20260906022509 | 61 | 140 | 0.0 | 1.0 | 0.00 | 0.00 | 0.00 | 67 | 1020.7 |
| 20260906021508 | 61 | 139 | 0.0 | 2.0 | 0.00 | 0.00 | 0.00 | 67 | 1020.5 |
| 20260906021009 | 61 | 112 | 0.0 | 1.0 | 0.00 | 0.00 | 0.00 | 67 | 1020.6 |
| 20260906020508 | 62 | 127 | 0.0 | 0.0 | 0.00 | 0.00 | 0.00 | 67 | 1020.5 |
| 20260906020007 | 62 | 128 | 0.0 | 1.0 | 0.00 | 0.00 | 0.00 | 66 | 1020.3 |
| 20260906015505 | 62 | 129 | 0.0 | 1.0 | 0.00 | 0.00 | 0.00 | 66 | 1020.3 |
| 20260906014503 | 62 | 128 | 0.0 | 1.0 | 0.00 | 0.00 | 0.00 | 65 | 1020.1 |
| 20260906014003 | 62 | 128 | 0.0 | 1.0 | 0.00 | 0.00 | 0.00 | 64 | 1020.1 |
| 20260906013501 | 62 | 25 | 0.0 | 1.0 | 0.00 | 0.00 | 0.00 | 64 | 1020.1 |
| 20260906013001 | 62 | 25 | 0.0 | 0.0 | 0.00 | 0.00 | 0.00 | 64 | 1020.2 |
| 20260906012503 | 62 | 25 | 0.0 | 0.0 | 0.00 | 0.00 | 0.00 | 63 | 1020.2 |
| 20260906012002 | 63 | 25 | 0.0 | 0.0 | 0.00 | 0.00 | 0.00 | 62 | 1020.2 |
| 20260906011503 | 63 | 25 | 0.0 | 1.0 | 0.00 | 0.00 | 0.00 | 62 | 1020.1 |
| 20260906011002 | 63 | 24 | 0.0 | 1.0 | 0.00 | 0.00 | 0.00 | 62 | 1020.1 |
| 20260906010504 | 63 | 25 | 0.0 | 1.0 | 0.00 | 0.00 | 0.00 | 62 | 1020.0 |
| 20260906005959 | 63 | 82 | 0.0 | 1.0 | 0.00 | 0.00 | 0.00 | 62 | 1019.9 |
| 20260906005458 | 63 | 128 | 0.0 | 1.0 | 0.00 | 0.00 | 0.00 | 62 | 1019.9 |
| 20260906004959 | 63 | 128 | 0.0 | 1.0 | 0.00 | 0.00 | 0.00 | 61 | 1019.9 |
| 20260906004459 | 63 | 129 | 0.0 | 1.0 | 0.00 | 0.00 | 0.00 | 61 | 1019.8 |
| 20260906003459 | 63 | 128 | 0.0 | 1.0 | 0.00 | 0.00 | 0.00 | 61 | 1019.7 |
| 20260906002011 | 63 | 128 | 0.0 | 1.0 | 0.00 | 0.00 | 0.00 | 61 | 1019.6 |
| 20260906001505 | 63 | 128 | 0.0 | 1.0 | 0.00 | 0.00 | 0.00 | 61 | 1019.6 |
| 20260906000953 | 63 | 128 | 0.0 | 1.0 | 0.00 | 0.00 | 0.00 | 61 | 1019.5 |
| 20260906000455 | 63 | 128 | 0.0 | 1.0 | 0.00 | 0.00 | 0.00 | 61 | 1019.5 |
| 20260905235455 | 64 | 117 | 0.0 | 2.0 | 0.00 | 0.00 | 0.00 | 60 | 1019.5 |
| 20260905234455 | 64 | 118 | 0.0 | 1.0 | 0.00 | 0.00 | 0.00 | 60 | 1019.4 |
| 20260905233453 | 65 | 117 | 0.0 | 1.0 | 0.00 | 0.00 | 0.00 | 59 | 1019.3 |
| 20260905232951 | 65 | 117 | 0.0 | 1.0 | 0.00 | 0.00 | 0.00 | 58 | 1019.3 |
| 20260905231939 | 65 | 117 | 0.0 | 1.0 | 0.00 | 0.00 | 0.00 | 57 | 1019.2 |
| 20260905231432 | 65 | 5 | 0.0 | 1.0 | 0.00 | 0.00 | 0.00 | 56 | 1019.1 |
| 20260905230927 | 65 | 349 | 0.0 | 1.0 | 0.00 | 0.00 | 0.00 | 56 | 1019.1 |
| 20260905230428 | 65 | 326 | 0.0 | 2.0 | 0.00 | 0.00 | 0.00 | 56 | 1019.0 |
| 20260905225927 | 66 | 64 | 1.0 | 3.0 | 0.00 | 0.00 | 0.00 | 56 | 1019.0 |
| 20260905225430 | 66 | 325 | 1.0 | 3.0 | 0.00 | 0.00 | 0.00 | 56 | 1018.9 |
| 20260905224422 | 65 | 336 | 0.0 | 1.0 | 0.00 | 0.00 | 0.00 | 55 | 1018.8 |
| 20260905223921 | 66 | 118 | 0.0 | 2.0 | 0.00 | 0.00 | 0.00 | 54 | 1018.7 |
| 20260905223419 | 66 | 118 | 0.0 | 2.0 | 0.00 | 0.00 | 0.00 | 54 | 1018.7 |
| 20260905222919 | 66 | 345 | 0.0 | 0.0 | 0.00 | 0.00 | 0.00 | 54 | 1018.6 |
| 20260905222421 | 66 | 344 | 0.0 | 1.0 | 0.00 | 0.00 | 0.00 | 53 | 1018.5 |
| 20260905221919 | 66 | 344 | 0.0 | 1.0 | 0.00 | 0.00 | 0.00 | 53 | 1018.2 |
| 20260905221417 | 66 | 344 | 0.0 | 0.0 | 0.00 | 0.00 | 0.00 | 53 | 1018.2 |
| 20260905220919 | 67 | 343 | 0.0 | 1.0 | 0.00 | 0.00 | 0.00 | 53 | 1018.2 |
| 20260905220419 | 67 | 344 | 0.0 | 1.0 | 0.00 | 0.00 | 0.00 | 52 | 1018.2 |
| 20260905215915 | 67 | 334 | 0.0 | 2.0 | 0.00 | 0.00 | 0.00 | 52 | 1018.1 |
| 20260905215415 | 67 | 332 | 0.0 | 2.0 | 0.00 | 0.00 | 0.00 | 52 | 1018.0 |
| 20260905214914 | 67 | 321 | 0.0 | 1.0 | 0.00 | 0.00 | 0.00 | 52 | 1018.0 |
| 20260905214418 | 67 | 32 | 0.0 | 3.0 | 0.00 | 0.00 | 0.00 | 51 | 1018.0 |
| 20260905213914 | 67 | 141 | 0.0 | 3.0 | 0.00 | 0.00 | 0.00 | 51 | 1018.0 |
| 20260905213409 | 68 | 127 | 0.0 | 3.0 | 0.00 | 0.00 | 0.00 | 51 | 1017.8 |
| 20260905212913 | 68 | 127 | 0.0 | 3.0 | 0.00 | 0.00 | 0.00 | 51 | 1017.7 |
| 20260905211850 | 68 | 146 | 0.0 | 1.0 | 0.00 | 0.00 | 0.00 | 51 | 1017.6 |
| 20260905210332 | 69 | 143 | 0.0 | 0.0 | 0.00 | 0.00 | 0.00 | 49 | 1017.4 |
| 20260905205321 | 69 | 143 | 0.0 | 1.0 | 0.00 | 0.00 | 0.00 | 49 | 1017.3 |
| 20260905204814 | 69 | 143 | 0.0 | 1.0 | 0.00 | 0.00 | 0.00 | 47 | 1017.4 |
| 20260905203256 | 69 | 149 | 0.0 | 1.0 | 0.00 | 0.00 | 0.00 | 48 | 1017.2 |
| 20260905202751 | 69 | 118 | 0.0 | 1.0 | 0.00 | 0.00 | 0.00 | 47 | 1017.2 |
| 20260905202245 | 70 | 174 | 0.0 | 2.0 | 0.00 | 0.00 | 0.00 | 47 | 1017.1 |
| 20260905201738 | 70 | 175 | 0.0 | 2.0 | 0.00 | 0.00 | 0.00 | 46 | 1017.1 |
| 20260905201232 | 70 | 82 | 0.0 | 1.0 | 0.00 | 0.00 | 0.00 | 45 | 1017.3 |
| 20260905195209 | 71 | 98 | 0.0 | 1.0 | 0.00 | 0.00 | 0.00 | 44 | 1017.0 |
| 20260905194702 | 71 | 99 | 0.0 | 2.0 | 0.00 | 0.00 | 0.00 | 44 | 1017.0 |
| 20260905193703 | 71 | 27 | 0.0 | 3.0 | 0.00 | 0.00 | 0.00 | 44 | 1016.9 |
| 20260905193144 | 71 | 30 | 0.0 | 2.0 | 0.00 | 0.00 | 0.00 | 44 | 1016.9 |
| 20260905192643 | 72 | 27 | 0.0 | 3.0 | 0.00 | 0.00 | 0.00 | 43 | 1016.8 |
| 20260905192132 | 72 | 18 | 0.0 | 3.0 | 0.00 | 0.00 | 0.00 | 43 | 1016.9 |
| 20260905191629 | 72 | 108 | 0.0 | 2.0 | 0.00 | 0.00 | 0.00 | 43 | 1016.7 |
| 20260905191121 | 73 | 129 | 1.0 | 5.0 | 0.00 | 0.00 | 0.00 | 42 | 1016.7 |
| 20260905190614 | 73 | 132 | 1.0 | 5.0 | 0.00 | 0.00 | 0.00 | 41 | 1016.6 |
| 20260905190115 | 74 | 284 | 0.0 | 3.0 | 0.00 | 0.00 | 0.00 | 41 | 1016.6 |
| 20260905185614 | 74 | 283 | 0.0 | 1.0 | 0.00 | 0.00 | 0.00 | 41 | 1016.5 |
| 20260905185118 | 74 | 283 | 0.0 | 1.0 | 0.00 | 0.00 | 0.00 | 40 | 1016.5 |
| 20260905184610 | 74 | 284 | 0.0 | 1.0 | 0.00 | 0.00 | 0.00 | 41 | 1016.5 |
| 20260905184113 | 74 | 284 | 0.0 | 1.0 | 0.00 | 0.00 | 0.00 | 40 | 1016.5 |
| 20260905183610 | 75 | 283 | 0.0 | 1.0 | 0.00 | 0.00 | 0.00 | 41 | 1016.4 |
| 20260905183110 | 75 | 284 | 0.0 | 2.0 | 0.00 | 0.00 | 0.00 | 40 | 1016.1 |
| 20260905182608 | 76 | 284 | 0.0 | 2.0 | 0.00 | 0.00 | 0.00 | 38 | 1016.1 |
| 20260905182125 | 76 | 284 | 0.0 | 2.0 | 0.00 | 0.00 | 0.00 | 38 | 1016.0 |
| 20260905181608 | 76 | 281 | 0.0 | 3.0 | 0.00 | 0.00 | 0.00 | 38 | 1015.9 |
| 20260905181128 | 76 | 284 | 0.0 | 3.0 | 0.00 | 0.00 | 0.00 | 38 | 1015.9 |
| 20260905180123 | 77 | 284 | 0.0 | 2.0 | 0.00 | 0.00 | 0.00 | 37 | 1015.7 |
| 20260905175604 | 78 | 284 | 1.0 | 3.0 | 0.00 | 0.00 | 0.00 | 36 | 1015.8 |
| 20260905175059 | 78 | 284 | 1.0 | 3.0 | 0.00 | 0.00 | 0.00 | 35 | 1015.8 |
| 20260905174600 | 79 | 284 | 0.0 | 1.0 | 0.00 | 0.00 | 0.00 | 37 | 1015.6 |
| 20260905174107 | 79 | 239 | 0.0 | 1.0 | 0.00 | 0.00 | 0.00 | 36 | 1015.6 |
| 20260905173055 | 81 | 239 | 0.0 | 0.0 | 0.00 | 0.00 | 0.00 | 34 | 1015.5 |
| 20260905172555 | 82 | 239 | 0.0 | 0.0 | 0.00 | 0.00 | 0.00 | 33 | 1015.4 |
| 20260905172055 | 82 | 239 | 0.0 | 0.0 | 0.00 | 0.00 | 0.00 | 31 | 1015.4 |
| 20260905171552 | 83 | 239 | 0.0 | 1.0 | 0.00 | 0.00 | 0.00 | 30 | 1015.4 |
| 20260905171050 | 84 | 239 | 0.0 | 1.0 | 0.00 | 0.00 | 0.00 | 29 | 1015.3 |
| 20260905170551 | 85 | 239 | 0.0 | 1.0 | 0.00 | 0.00 | 0.00 | 27 | 1015.2 |
| 20260905170100 | 86 | 239 | 0.0 | 0.0 | 0.00 | 0.00 | 0.00 | 26 | 1015.2 |
| 20260905165546 | 87 | 239 | 0.0 | 0.0 | 0.00 | 0.00 | 0.00 | 26 | 1015.1 |
| 20260905165042 | 88 | 239 | 0.0 | 1.0 | 0.00 | 0.00 | 0.00 | 25 | 1015.1 |
| 20260905164542 | 89 | 238 | 0.0 | 1.0 | 0.00 | 0.00 | 0.00 | 24 | 1015.1 |
| 20260905164042 | 90 | 239 | 0.0 | 1.0 | 0.00 | 0.00 | 0.00 | 22 | 1015.1 |
| 20260905163540 | 90 | 239 | 0.0 | 1.0 | 0.00 | 0.00 | 0.00 | 22 | 1015.1 |
| 20260905163040 | 91 | 239 | 0.0 | 1.0 | 0.00 | 0.00 | 0.00 | 22 | 1015.1 |
| 20260905162538 | 91 | 239 | 0.0 | 1.0 | 0.00 | 0.00 | 0.00 | 21 | 1015.1 |
| 20260905161539 | 92 | 240 | 1.0 | 4.0 | 0.00 | 0.00 | 0.00 | 21 | 1015.2 |
| 20260905161044 | 92 | 235 | 1.0 | 4.0 | 0.00 | 0.00 | 0.00 | 21 | 1015.2 |
| 20260905160540 | 92 | 242 | 0.0 | 3.0 | 0.00 | 0.00 | 0.00 | 21 | 1015.2 |
| 20260905160055 | 93 | 284 | 0.0 | 2.0 | 0.00 | 0.00 | 0.00 | 20 | 1015.2 |
| 20260905155536 | 93 | 237 | 1.0 | 2.0 | 0.00 | 0.00 | 0.00 | 21 | 1015.2 |
| 20260905155035 | 94 | 240 | 1.0 | 2.0 | 0.00 | 0.00 | 0.00 | 20 | 1015.3 |
| 20260905154539 | 94 | 246 | 0.0 | 2.0 | 0.00 | 0.00 | 0.00 | 20 | 1015.2 |
| 20260905154035 | 93 | 248 | 1.0 | 3.0 | 0.00 | 0.00 | 0.00 | 20 | 1015.2 |
| 20260905153535 | 93 | 246 | 1.0 | 4.0 | 0.00 | 0.00 | 0.00 | 19 | 1015.2 |
| 20260905152535 | 93 | 253 | 1.0 | 4.0 | 0.00 | 0.00 | 0.00 | 20 | 1015.1 |
| 20260905152034 | 93 | 239 | 2.0 | 5.0 | 0.00 | 0.00 | 0.00 | 20 | 1015.2 |
| 20260905151538 | 93 | 284 | 2.0 | 5.0 | 0.00 | 0.00 | 0.00 | 20 | 1015.2 |
| 20260905151031 | 93 | 264 | 2.0 | 5.0 | 0.00 | 0.00 | 0.00 | 20 | 1015.2 |
| 20260905150530 | 94 | 231 | 1.0 | 5.0 | 0.00 | 0.00 | 0.00 | 20 | 1015.3 |
| 20260905150032 | 94 | 263 | 1.0 | 5.0 | 0.00 | 0.00 | 0.00 | 20 | 1015.3 |
| 20260905145030 | 94 | 255 | 3.0 | 7.0 | 0.00 | 0.00 | 0.00 | 20 | 1015.4 |
| 20260905144533 | 94 | 280 | 3.0 | 7.0 | 0.00 | 0.00 | 0.00 | 20 | 1015.4 |
| 20260905144032 | 94 | 233 | 2.0 | 5.0 | 0.00 | 0.00 | 0.00 | 20 | 1015.4 |
| 20260905143530 | 94 | 255 | 2.0 | 6.0 | 0.00 | 0.00 | 0.00 | 20 | 1015.5 |
| 20260905142525 | 94 | 235 | 2.0 | 7.0 | 0.00 | 0.00 | 0.00 | 21 | 1015.5 |
| 20260905142025 | 93 | 243 | 2.0 | 7.0 | 0.00 | 0.00 | 0.00 | 21 | 1015.5 |
| 20260905141527 | 93 | 284 | 1.0 | 6.0 | 0.00 | 0.00 | 0.00 | 21 | 1015.6 |
| 20260905141026 | 94 | 284 | 1.0 | 6.0 | 0.00 | 0.00 | 0.00 | 21 | 1015.6 |
| 20260905140029 | 94 | 228 | 2.0 | 5.0 | 0.00 | 0.00 | 0.00 | 22 | 1015.6 |
| 20260905135523 | 94 | 284 | 1.0 | 5.0 | 0.00 | 0.00 | 0.00 | 22 | 1015.7 |
| 20260905135023 | 93 | 259 | 2.0 | 7.0 | 0.00 | 0.00 | 0.00 | 23 | 1015.8 |
| 20260905134524 | 93 | 277 | 2.0 | 7.0 | 0.00 | 0.00 | 0.00 | 23 | 1015.8 |
| 20260905134025 | 93 | 253 | 1.0 | 4.0 | 0.00 | 0.00 | 0.00 | 23 | 1015.9 |
| 20260905133526 | 93 | 238 | 2.0 | 6.0 | 0.00 | 0.00 | 0.00 | 23 | 1015.9 |
| 20260905133022 | 93 | 281 | 2.0 | 6.0 | 0.00 | 0.00 | 0.00 | 23 | 1015.9 |
| 20260905132522 | 93 | 264 | 1.0 | 6.0 | 0.00 | 0.00 | 0.00 | 24 | 1015.9 |
| 20260905132022 | 92 | 212 | 2.0 | 9.0 | 0.00 | 0.00 | 0.00 | 24 | 1015.9 |
| 20260905131521 | 92 | 255 | 2.0 | 9.0 | 0.00 | 0.00 | 0.00 | 24 | 1016.0 |
| 20260905131019 | 92 | 237 | 2.0 | 6.0 | 0.00 | 0.00 | 0.00 | 24 | 1016.0 |
| 20260905130515 | 92 | 233 | 2.0 | 9.0 | 0.00 | 0.00 | 0.00 | 24 | 1016.1 |
| 20260905124013 | 91 | 243 | 1.0 | 4.0 | 0.00 | 0.00 | 0.00 | 27 | 1016.5 |
| 20260905123516 | 91 | 179 | 2.0 | 6.0 | 0.00 | 0.00 | 0.00 | 26 | 1016.5 |
| 20260905123016 | 92 | 283 | 2.0 | 7.0 | 0.00 | 0.00 | 0.00 | 26 | 1016.6 |
| 20260905121510 | 90 | 233 | 2.0 | 7.0 | 0.00 | 0.00 | 0.00 | 28 | 1016.7 |
| 20260905115505 | 91 | 205 | 2.0 | 8.0 | 0.00 | 0.00 | 0.00 | 28 | 1016.9 |
| 20260905114452 | 90 | 280 | 2.0 | 8.0 | 0.00 | 0.00 | 0.00 | 29 | 1017.1 |
| 20260905113947 | 90 | 155 | 2.0 | 10.0 | 0.00 | 0.00 | 0.00 | 29 | 1017.1 |
| 20260905113440 | 90 | 249 | 3.0 | 10.0 | 0.00 | 0.00 | 0.00 | 29 | 1017.2 |
| 20260905112935 | 90 | 222 | 2.0 | 6.0 | 0.00 | 0.00 | 0.00 | 29 | 1017.2 |
| 20260905111923 | 90 | 278 | 1.0 | 7.0 | 0.00 | 0.00 | 0.00 | 29 | 1017.2 |
| 20260905111416 | 90 | 257 | 2.0 | 8.0 | 0.00 | 0.00 | 0.00 | 30 | 1017.2 |
| 20260905110916 | 89 | 262 | 3.0 | 8.0 | 0.00 | 0.00 | 0.00 | 31 | 1017.3 |
| 20260905105900 | 88 | 231 | 2.0 | 7.0 | 0.00 | 0.00 | 0.00 | 32 | 1017.3 |
| 20260905105353 | 87 | 219 | 2.0 | 7.0 | 0.00 | 0.00 | 0.00 | 32 | 1017.3 |
| 20260905104846 | 87 | 111 | 2.0 | 9.0 | 0.00 | 0.00 | 0.00 | 32 | 1017.4 |
| 20260905104341 | 88 | 249 | 2.0 | 9.0 | 0.00 | 0.00 | 0.00 | 31 | 1017.5 |
| 20260905103835 | 88 | 249 | 2.0 | 5.0 | 0.00 | 0.00 | 0.00 | 32 | 1017.6 |
| 20260905103328 | 88 | 261 | 2.0 | 5.0 | 0.00 | 0.00 | 0.00 | 32 | 1017.6 |
| 20260905102316 | 88 | 266 | 2.0 | 7.0 | 0.00 | 0.00 | 0.00 | 32 | 1017.8 |
| 20260905101811 | 87 | 286 | 2.0 | 7.0 | 0.00 | 0.00 | 0.00 | 34 | 1017.8 |
| 20260905101305 | 86 | 179 | 2.0 | 5.0 | 0.00 | 0.00 | 0.00 | 34 | 1017.9 |
| 20260905100759 | 86 | 214 | 2.0 | 6.0 | 0.00 | 0.00 | 0.00 | 34 | 1018.0 |
| 20260905100252 | 86 | 232 | 2.0 | 6.0 | 0.00 | 0.00 | 0.00 | 34 | 1018.0 |
| 20260905095747 | 86 | 212 | 1.0 | 5.0 | 0.00 | 0.00 | 0.00 | 35 | 1018.0 |
| 20260905095243 | 85 | 200 | 1.0 | 5.0 | 0.00 | 0.00 | 0.00 | 35 | 1018.1 |
| 20260905094230 | 85 | 284 | 1.0 | 6.0 | 0.00 | 0.00 | 0.00 | 35 | 1018.4 |
| 20260905093722 | 84 | 242 | 1.0 | 4.0 | 0.00 | 0.00 | 0.00 | 36 | 1018.4 |
| 20260905093219 | 84 | 186 | 1.0 | 4.0 | 0.00 | 0.00 | 0.00 | 35 | 1018.5 |
| 20260905092711 | 84 | 284 | 1.0 | 6.0 | 0.00 | 0.00 | 0.00 | 36 | 1018.6 |
| 20260905091659 | 83 | 184 | 1.0 | 5.0 | 0.00 | 0.00 | 0.00 | 36 | 1018.6 |
| 20260905091153 | 83 | 225 | 1.0 | 5.0 | 0.00 | 0.00 | 0.00 | 37 | 1018.6 |
| 20260905090141 | 82 | 211 | 1.0 | 2.0 | 0.00 | 0.00 | 0.00 | 38 | 1018.7 |
| 20260905085635 | 81 | 276 | 1.0 | 2.0 | 0.00 | 0.00 | 0.00 | 40 | 1018.7 |
| 20260905084624 | 81 | 255 | 0.0 | 3.0 | 0.00 | 0.00 | 0.00 | 41 | 1018.8 |
| 20260905084118 | 80 | 240 | 0.0 | 2.0 | 0.00 | 0.00 | 0.00 | 42 | 1018.9 |
| 20260905083623 | 79 | 226 | 0.0 | 5.0 | 0.00 | 0.00 | 0.00 | 44 | 1019.0 |
| 20260905083105 | 78 | 184 | 0.0 | 5.0 | 0.00 | 0.00 | 0.00 | 44 | 1019.0 |
| 20260905082559 | 78 | 245 | 0.0 | 3.0 | 0.00 | 0.00 | 0.00 | 44 | 1019.0 |
| 20260905082052 | 77 | 285 | 0.0 | 1.0 | 0.00 | 0.00 | 0.00 | 45 | 1019.0 |
| 20260905081548 | 76 | 283 | 0.0 | 2.0 | 0.00 | 0.00 | 0.00 | 46 | 1019.1 |
| 20260905081041 | 76 | 219 | 0.0 | 2.0 | 0.00 | 0.00 | 0.00 | 46 | 1019.1 |
| 20260905080535 | 76 | 242 | 0.0 | 2.0 | 0.00 | 0.00 | 0.00 | 46 | 1019.1 |
| 20260905080031 | 76 | 224 | 0.0 | 2.0 | 0.00 | 0.00 | 0.00 | 46 | 1019.1 |
| 20260905075523 | 75 | 181 | 0.0 | 2.0 | 0.00 | 0.00 | 0.00 | 48 | 1019.2 |
| 20260905075017 | 74 | 139 | 0.0 | 2.0 | 0.00 | 0.00 | 0.00 | 48 | 1019.2 |
| 20260905074512 | 74 | 224 | 0.0 | 2.0 | 0.00 | 0.00 | 0.00 | 49 | 1019.2 |
| 20260905074005 | 73 | 221 | 0.0 | 3.0 | 0.00 | 0.00 | 0.00 | 50 | 1019.2 |
| 20260905072452 | 71 | 278 | 0.0 | 2.0 | 0.00 | 0.00 | 0.00 | 53 | 1019.1 |
| 20260905071435 | 70 | 161 | 0.0 | 1.0 | 0.00 | 0.00 | 0.00 | 54 | 1019.1 |
| 20260905070929 | 70 | 181 | 0.0 | 1.0 | 0.00 | 0.00 | 0.00 | 55 | 1019.1 |
| 20260905070423 | 69 | 176 | 0.0 | 2.0 | 0.00 | 0.00 | 0.00 | 57 | 1019.1 |
| 20260905065920 | 69 | 138 | 0.0 | 4.0 | 0.00 | 0.00 | 0.00 | 57 | 1019.1 |
| 20260905064907 | 68 | 219 | 0.0 | 3.0 | 0.00 | 0.00 | 0.00 | 58 | 1019.1 |
| 20260905064358 | 67 | 143 | 0.0 | 2.0 | 0.00 | 0.00 | 0.00 | 59 | 1019.2 |
| 20260905063857 | 67 | 151 | 0.0 | 1.0 | 0.00 | 0.00 | 0.00 | 61 | 1019.2 |
| 20260905063347 | 65 | 181 | 0.0 | 1.0 | 0.00 | 0.00 | 0.00 | 62 | 1019.3 |
| 20260905062336 | 64 | 154 | 0.0 | 2.0 | 0.00 | 0.00 | 0.00 | 65 | 1019.3 |
| 20260905061837 | 64 | 146 | 0.0 | 2.0 | 0.00 | 0.00 | 0.00 | 65 | 1019.4 |
| 20260905060836 | 63 | 139 | 0.0 | 2.0 | 0.00 | 0.00 | 0.00 | 66 | 1019.6 |
| 20260905060337 | 63 | 143 | 0.0 | 2.0 | 0.00 | 0.00 | 0.00 | 66 | 1019.6 |
| 20260905055836 | 63 | 118 | 0.0 | 2.0 | 0.00 | 0.00 | 0.00 | 67 | 1019.6 |
| 20260905055338 | 62 | 118 | 0.0 | 1.0 | 0.00 | 0.00 | 0.00 | 68 | 1019.6 |
| 20260905054336 | 62 | 118 | 0.0 | 1.0 | 0.00 | 0.00 | 0.00 | 68 | 1019.5 |
| 20260905052336 | 59 | 129 | 0.0 | 1.0 | 0.00 | 0.00 | 0.00 | 73 | 1019.5 |
| 20260905051831 | 58 | 134 | 0.0 | 2.0 | 0.00 | 0.00 | 0.00 | 74 | 1019.5 |
| 20260905051328 | 58 | 134 | 0.0 | 2.0 | 0.00 | 0.00 | 0.00 | 76 | 1019.5 |
| 20260905050328 | 57 | 146 | 0.0 | 2.0 | 0.00 | 0.00 | 0.00 | 76 | 1019.5 |
| 20260905045825 | 57 | 134 | 0.0 | 1.0 | 0.00 | 0.00 | 0.00 | 77 | 1019.5 |
| 20260905045321 | 57 | 129 | 0.0 | 2.0 | 0.00 | 0.00 | 0.00 | 77 | 1019.5 |
| 20260905044321 | 56 | 134 | 0.0 | 3.0 | 0.00 | 0.00 | 0.00 | 77 | 1019.5 |
| 20260905041818 | 55 | 122 | 0.0 | 1.0 | 0.00 | 0.00 | 0.00 | 81 | 1019.3 |
| 20260905041317 | 55 | 122 | 0.0 | 1.0 | 0.00 | 0.00 | 0.00 | 81 | 1019.3 |
| 20260905040818 | 55 | 122 | 0.0 | 0.0 | 0.00 | 0.00 | 0.00 | 81 | 1019.2 |
| 20260905040317 | 55 | 123 | 0.0 | 1.0 | 0.00 | 0.00 | 0.00 | 81 | 1019.2 |
| 20260905035824 | 55 | 122 | 0.0 | 1.0 | 0.00 | 0.00 | 0.00 | 81 | 1019.1 |
| 20260905035319 | 55 | 123 | 0.0 | 1.0 | 0.00 | 0.00 | 0.00 | 80 | 1019.1 |
| 20260905034816 | 55 | 123 | 0.0 | 1.0 | 0.00 | 0.00 | 0.00 | 79 | 1019.1 |
| 20260905033819 | 56 | 92 | 0.0 | 1.0 | 0.00 | 0.00 | 0.00 | 79 | 1019.1 |
| 20260905033317 | 56 | 92 | 0.0 | 1.0 | 0.00 | 0.00 | 0.00 | 79 | 1019.1 |